STARLINK-2418, 48097

Orbit data source: Space-Track

STARLINK-2418, 48097 is a payload satellite owned by SpaceX/Seattle (US) in LEO that was launched on Wed, 07 Apr 2021 UTC via an FALCON 9 launch vehicle from the Air Force Eastern Test Range (AFETR). Payload-class satellites include a variety of spacecraft equipped with specific instruments for various scientific and technological missions. These include communications satellites like Starlink; space stations such as the ISS; scientific satellites like the Hubble; Earth observation satellites from companies like Planet Labs, Umbra, and HawkEye 360; GPS; miniature CubeSats for education and research; and military/defense satellites.

Loading next visibility...
Identifier
48097, 2021-027F
Orbit
LEO
Country
Flag of USUS
Related business
Manufacturer
SpaceX/Seattle
Mission
Operational Commercial Communications
Bus & Motor
STARLINK, Unknown motor
Mass
260 kg wet, ~248 kg dry
Launch date (UTC)
2021-04-07 (5 years ago)
Launch vehicle
FALCON 9
Launch site
Air Force Eastern Test Range (AFETR)
Object type
Payload
Rocket body
Debris
Shape & HBR
Box + 1 Pan, 10.1 m
Radar Cross Section
13.562 m², Large (>1 m²)

Expand to show TLE details & history
Last TLE update: 2 days ago

TLE from 2 days ago
0 STARLINK-2418
1 48097U 21027F   26171.33256775  .00000718  00000-0  34904-4 0  9995
2 48097  53.1612  35.4062 0001338  90.7655 269.3500 15.31703913288405
Epoch: 2026-06-20T07:58Z
TLE epoch observation values (Epoch: 2026-06-20T07:58:53.853Z)
Latitude
-0.00001°
Longitude
7.1331°
Altitude
471.639 km
Speed
7.631 km/s
True Right ascension
02h 21m 37s
True Declination
0° 00' 00"
Sunlit
Object was in daylight at epoch
Visualization orbit readout
Latitude
Unknown
Longitude
Unknown
Altitude
Unknown
Speed
Unknown
Apparent Right ascension
Unknown
Apparent Declination
Unknown
Sunlit
N/A
Visualization observer readout
Local Sidereal Time
23:07:43
Azimuth
Unknown
Elevation
Unknown
Doppler factor
Unknown
Orbital elements
Apogee altitude
471.901 km
Perigee altitude
470.068 km
Semi-major axis
6,849.122 km
Eccentricity
0.00013
Inclination
53.1612°
RAAN
35.4062°
Arg. of periapsis
90.7655°
True anomaly
269.33467°
Mean anomaly
269.35°
Eccentric anomaly
269.34233°
Mean motion
3.82905 °/min
Orbital period
94.02 mins
BSTAR
0.000034904
Loading maneuver chart data...
Computing Atmospheric mass density...

Documentation

Showing up to 5 results
|